Buffalo, NY

9:19 PM EST on November 21, 2019 (GMT -0500)
Buffalo Niagara International

Weather History for KBUF - October, 2019

Change the Weather History Date:

Saturday, October 19, 2019

  Actual Average Record
Temperature  
Mean Temperature 46 °F 50 °F  
Max Temperature 58 °F 58 °F 77 °F (1961)
Min Temperature 33 °F 42 °F 25 °F (1972)
Degree Days  
Heating Degree Days 19 15  
Month to date heating degree days 240 234  
Since 1 July heating degree days 285 396  
Cooling Degree Days 0 0  
Month to date cooling degree days 7 0  
Year to date cooling degree days 604 540  
Moisture  
Dew Point 37 °F    
Average Humidity 74    
Maximum Humidity 100    
Minimum Humidity 47    
Precipitation  
Precipitation 0.00 in 0.10 in 1.41 in (1996)
Month to date precipitation 2.67 2.22  
Year to date precipitation 37.32 31.28  
Snow  
Snow 0.00 in 0.10 in 1.40 in (1930)
Month to date snowfall 0.0 0.4  
Since 1 July snowfall 0.0 0.4  
Since 1 September snowfall 0.0 0.4  
Snow Depth 0.00 in    
Sea Level Pressure  
Sea Level Pressure 30.02 in    
Wind  
Wind Speed 4 mph (ESE)    
Max Wind Speed 10 mph    
Max Gust Speed 13 mph    
Visibility 10 miles    
Events      
T = Trace of Precipitation, MM = Missing Value Source: NWS Daily Summary

Daily Weather History Graph

Daily Weather History Graph

Search for Another Location

Airport or City:

Astronomy

Oct. 19, 2019 Rise Set
Actual Time 7:32 AM EDT 6:26 PM EDT
Civil Twilight 7:04 AM EDT 6:54 PM EDT
Nautical Twilight 6:31 AM EDT 7:27 PM EDT
Astronomical Twilight 5:58 AM EDT 8:00 PM EDT
Moon 10:27 PM EDT (10/19) 1:09 PM EDT (10/19)
Length of Visible Light 11h 50m
Length of Day
10h 53m
Waning Gibbous, 70% of the Moon is Illuminated
Oct 19
Waning Gibbous
Oct 21
Last Quarter
Oct 27
New
Nov 4
First Quarter
Nov 12
Full

Hourly Weather History & Observations

Time (EDT) Temp. Windchill Dew Point Humidity Pressure Visibility Wind Dir Wind Speed Gust Speed Precip Events Conditions
12:54 AM 36.0 °F 32.1 °F 35.1 °F 97% 30.07 in 10.0 mi ESE 4.6 mph - N/A   Partly Cloudy
1:54 AM 36.0 °F - 34.0 °F 93% 30.07 in 10.0 mi Calm Calm - N/A   Partly Cloudy
2:54 AM 35.1 °F - 34.0 °F 96% 30.07 in 10.0 mi Calm Calm - N/A   Partly Cloudy
3:54 AM 35.1 °F - 34.0 °F 96% 30.06 in 10.0 mi Calm Calm - N/A   Partly Cloudy
4:54 AM 34.0 °F 29.8 °F 34.0 °F 100% 30.06 in 10.0 mi ESE 4.6 mph - N/A   Partly Cloudy
5:54 AM 33.1 °F 30.0 °F 32.0 °F 96% 30.08 in 10.0 mi South 3.5 mph - N/A   Partly Cloudy
6:54 AM 34.0 °F 28.8 °F 33.1 °F 96% 30.09 in 10.0 mi SSE 5.8 mph - N/A   Partly Cloudy
7:54 AM 33.1 °F 30.0 °F 33.1 °F 100% 30.09 in 10.0 mi SE 3.5 mph - N/A   Partly Cloudy
8:54 AM 37.0 °F 33.3 °F 35.1 °F 93% 30.09 in 10.0 mi ESE 4.6 mph - N/A   Partly Cloudy
9:54 AM 42.1 °F - 37.9 °F 85% 30.09 in 10.0 mi Calm Calm - N/A   Partly Cloudy
10:54 AM 48.0 °F - 41.0 °F 77% 30.09 in 10.0 mi Calm Calm - N/A   Partly Cloudy
11:54 AM 51.1 °F - 39.0 °F 63% 30.09 in 10.0 mi Calm Calm - N/A   Partly Cloudy
12:54 PM 51.1 °F - 39.0 °F 63% 30.06 in 10.0 mi SW 3.5 mph - N/A   Partly Cloudy
1:54 PM 55.0 °F - 37.9 °F 53% 30.02 in 10.0 mi Calm Calm - N/A   Partly Cloudy
2:54 PM 55.9 °F - 39.0 °F 53% 30.00 in 10.0 mi Variable 3.5 mph - N/A   Partly Cloudy
3:54 PM 57.0 °F - 37.0 °F 47% 29.98 in 10.0 mi Variable 6.9 mph - N/A   Mostly Cloudy
4:54 PM 57.0 °F - 37.9 °F 49% 29.97 in 10.0 mi NNE 4.6 mph - N/A   Mostly Cloudy
5:54 PM 53.1 °F - 39.9 °F 61% 29.96 in 10.0 mi NE 10.4 mph - N/A   Mostly Cloudy
6:54 PM 50.0 °F - 39.9 °F 68% 29.95 in 10.0 mi NE 8.1 mph - N/A   Scattered Clouds
7:54 PM 46.9 °F - 39.0 °F 74% 29.96 in 10.0 mi ENE 8.1 mph - N/A   Scattered Clouds
8:54 PM 46.9 °F - 39.0 °F 74% 29.94 in 10.0 mi ESE 9.2 mph - N/A   Mostly Cloudy
9:54 PM 46.0 °F 41.4 °F 39.9 °F 79% 29.92 in 10.0 mi ESE 9.2 mph - N/A   Mostly Cloudy
10:54 PM 44.1 °F 41.5 °F 39.0 °F 82% 29.92 in 10.0 mi SE 4.6 mph - N/A   Partly Cloudy
11:54 PM 45.0 °F 42.6 °F 39.0 °F 80% 29.92 in 10.0 mi SSE 4.6 mph - N/A   Mostly Cloudy